Location: 22
(39.7117°N, 89.5929°W)
Time: 08:43:04
(UTC-05:00)

Vanguard 1 Rocket - Pass Details

Date: 15 February 2023
Orbit: 652 x 4223 km, 34.3° (Epoch: 24 March)

Event Time Altitude Azimuth Distance (km) Brightness Sun altitude
Rises 09:19:26 0° 237° (WSW) 3,148 10.0 24.0°
Reaches altitude 10° 09:21:31 10° 230° (SW) 2,385 9.6 24.3°
Maximum altitude 09:26:40 44° 158° (SSE) 1,454 9.8 25.0°
Drops below altitude 10° 09:35:25 10° 90° (E) 4,023 11.4 26.2°
Sets 09:40:02 0° 85° (E) 5,612 11.9 26.8°
